,,PA_Meas_PMT16A,,PR_Meas_QMR101_102,,RH_Meas_QMH101,,SR_Meas_QMS101,,TA_Meas_QMH101,,GenWind,,GenWind,
time,status,PA,status,PR,status,RH,status,SR,status,TA,status,DirAvg,status,SpdAvg,
2016-12-15, 14:32:04,VALID,918.61,VALID,0,INVALID,125.474,VALID,174.914,VALID,20.3479,VALID,13,VALID,1.55586,
2016-12-15, 14:50:04,VALID,918.728,VALID,0,INVALID,125.131,VALID,235.511,VALID,20.504,VALID,9,VALID,1.09492,
2016-12-15, 14:51:04,VALID,918.777,VALID,0,INVALID,125.52,VALID,254.098,VALID,20.582,VALID,8,VALID,0.0195313,
2016-12-15, 14:52:04,VALID,918.754,VALID,0,INVALID,125.573,VALID,214.453,VALID,20.7381,VALID,8,VALID,0.470313,
2016-12-15, 14:56:04,VALID,918.82,VALID,0,INVALID,124.147,VALID,182.543,VALID,20.9316,VALID,6,VALID,1.88594,
2016-12-15, 14:58:04,VALID,918.821,VALID,0,INVALID,123.934,VALID,177.493,VALID,20.8941,VALID,10,VALID,1.37188,
2016-12-15, 14:59:04,VALID,918.805,VALID,0,INVALID,124.833,VALID,247.974,VALID,20.873,VALID,30,VALID,1.37578,
2016-12-15, 15:01:04,VALID,918.853,VALID,0,INVALID,124.155,VALID,282.57,VALID,20.9917,VALID,3,VALID,2.51406,
2016-12-15, 15:02:04,VALID,918.919,VALID,0,INVALID,124.17,VALID,185.443,VALID,20.9917,VALID,15,VALID,1.02578,
2016-12-15, 15:06:04,VALID,919.062,VALID,0,INVALID,123.842,VALID,156.327,VALID,21.0876,VALID,311,VALID,0,
2016-12-15, 15:07:04,VALID,919.052,VALID,0,INVALID,123.301,VALID,288.587,VALID,21.0876,VALID,346,VALID,0,
2016-12-15, 15:08:04,VALID,919.025,VALID,0,INVALID,123.172,VALID,281.603,VALID,21.1071,VALID,17,VALID,1.63437,
2016-12-15, 15:10:04,VALID,919.02,VALID,0,INVALID,122.928,VALID,306.422,VALID,21.2632,VALID,27,VALID,1.78672,
2016-12-15, 15:11:04,VALID,919.067,VALID,0,INVALID,123.042,VALID,344.456,VALID,21.3006,VALID,5,VALID,1.07383,
2016-12-15, 15:12:04,VALID,919.106,VALID,0,INVALID,123.034,VALID,363.473,VALID,21.3803,VALID,5,VALID,0.400781,
2016-12-15, 15:13:04,VALID,919.109,VALID,0,INVALID,122.76,VALID,355.845,VALID,21.4973,VALID,339,VALID,0,
2016-12-15, 15:16:04,VALID,919.125,VALID,0,INVALID,122.371,VALID,214.667,VALID,21.6323,VALID,2,VALID,1.31055,
2016-12-15, 15:18:04,VALID,919.154,VALID,0,INVALID,121.959,VALID,193.394,VALID,21.5347,VALID,12,VALID,1.59219,
2016-12-15, 15:19:04,VALID,919.177,VALID,0,INVALID,122.676,VALID,186.196,VALID,21.5152,VALID,334,VALID,0,
2016-12-15, 15:20:04,VALID,919.19,VALID,0,INVALID,122.966,VALID,198.121,VALID,21.5932,VALID,360,VALID,0,
2016-12-15, 15:22:04,VALID,919.183,VALID,0,INVALID,121.898,VALID,300.62,VALID,21.6908,VALID,314,VALID,0,
2016-12-15, 15:23:04,VALID,919.236,VALID,0,INVALID,122.546,VALID,207.684,VALID,21.7688,VALID,344,VALID,0,
2016-12-15, 15:24:04,VALID,919.247,VALID,0,INVALID,121.67,VALID,182.865,VALID,21.8274,VALID,356,VALID,0,
2016-12-15, 15:25:04,VALID,919.225,VALID,0,INVALID,118.132,VALID,172.336,VALID,21.8079,VALID,15,VALID,0,
2016-12-15, 15:26:04,VALID,919.278,VALID,0,INVALID,122.234,VALID,172.55,VALID,21.8079,VALID,11,VALID,0.0773437,
2016-12-15, 15:27:04,VALID,919.261,VALID,0,INVALID,120.93,VALID,178.245,VALID,21.7867,VALID,2,VALID,0,
2016-12-15, 15:28:04,VALID,919.312,VALID,0,INVALID,121.754,VALID,185.121,VALID,21.7883,VALID,347,VALID,0.240625,
2016-12-15, 15:29:04,VALID,919.29,VALID,0,INVALID,120.397,VALID,184.476,VALID,21.6891,VALID,335,VALID,0.0195313,
2016-12-15, 15:30:04,VALID,919.312,VALID,0,INVALID,120.793,VALID,207.469,VALID,21.6501,VALID,12,VALID,0,
2016-12-15, 15:31:04,VALID,919.339,VALID,0,INVALID,121.853,VALID,188.667,VALID,21.6713,VALID,359,VALID,0.00390625,
2016-12-15, 15:32:04,VALID,919.359,VALID,0,INVALID,122.699,VALID,192.427,VALID,21.6306,VALID,3,VALID,0,
2016-12-15, 15:33:04,VALID,919.343,VALID,0,INVALID,122.074,VALID,200.593,VALID,21.5737,VALID,2,VALID,0,
2016-12-15, 15:34:04,VALID,919.376,VALID,0,INVALID,123.034,VALID,204.353,VALID,21.5932,VALID,323,VALID,0,
2016-12-15, 15:35:04,VALID,919.378,VALID,0,INVALID,122.943,VALID,210.907,VALID,21.5542,VALID,359,VALID,0,
2016-12-15, 15:36:04,VALID,919.383,VALID,0,INVALID,122.272,VALID,207.791,VALID,21.5347,VALID,24,VALID,0,
2016-12-15, 15:37:04,VALID,919.433,VALID,0,INVALID,122.973,VALID,215.527,VALID,21.6518,VALID,2,VALID,0,
2016-12-15, 15:38:04,VALID,919.374,VALID,0,INVALID,118.209,VALID,248.404,VALID,21.7298,VALID,284,VALID,0,
2016-12-15, 15:39:04,VALID,919.383,VALID,0,INVALID,117.957,VALID,240.131,VALID,21.8274,VALID,16,VALID,0,
2016-12-15, 15:41:04,VALID,919.357,VALID,0,INVALID,122.501,VALID,263.661,VALID,22.1396,VALID,14,VALID,0,
2016-12-15, 15:42:04,VALID,919.381,VALID,0,INVALID,115.891,VALID,245.61,VALID,22.2762,VALID,3,VALID,0,
2016-12-15, 15:44:04,VALID,919.404,VALID,0,INVALID,115.205,VALID,234.544,VALID,22.4323,VALID,16,VALID,0,
2016-12-15, 15:45:04,VALID,919.38,VALID,0,INVALID,116.943,VALID,231.858,VALID,22.5299,VALID,318,VALID,0,
2016-12-15, 15:46:04,VALID,919.349,VALID,0,INVALID,111.188,VALID,259.793,VALID,22.5884,VALID,10,VALID,0,
2016-12-15, 15:47:04,VALID,919.345,VALID,0,INVALID,109.617,VALID,246.04,VALID,22.5884,VALID,9,VALID,0.19375,
2016-12-15, 15:48:04,VALID,919.366,VALID,0,VALID,92.4415,VALID,536.776,VALID,22.5086,VALID,13,VALID,0,
2016-12-15, 15:50:04,VALID,919.319,VALID,0,VALID,104,VALID,372.928,VALID,22.5299,VALID,318,VALID,0,
2016-12-15, 15:51:04,VALID,919.279,VALID,0,VALID,93.7451,VALID,575.133,VALID,22.6079,VALID,316,VALID,0,
2016-12-15, 15:52:04,VALID,919.298,VALID,0,INVALID,115.548,VALID,563.744,VALID,22.7818,VALID,4,VALID,0,
2016-12-15, 15:54:04,VALID,919.348,VALID,0,VALID,92.2281,VALID,285.579,VALID,23.3283,VALID,329,VALID,0.679297,
2016-12-15, 15:55:04,VALID,919.322,VALID,0,VALID,86.0836,VALID,598.662,VALID,23.2893,VALID,2,VALID,0.0554687,
2016-12-15, 15:56:04,VALID,919.296,VALID,0,VALID,88.1038,VALID,557.405,VALID,23.3869,VALID,12,VALID,1.31133,
2016-12-15, 15:57:04,VALID,919.316,VALID,0,VALID,87.8141,VALID,277.413,VALID,23.4259,VALID,360,VALID,1.63555,
2016-12-15, 15:58:04,VALID,919.311,VALID,0,VALID,87.4101,VALID,532.371,VALID,23.3478,VALID,17,VALID,0.891406,
2016-12-15, 16:00:04,VALID,919.303,VALID,0,VALID,84.6809,VALID,169.864,VALID,23.504,VALID,353,VALID,1.12656,
2016-12-15, 16:01:04,VALID,919.303,VALID,0,VALID,85.9083,VALID,233.147,VALID,23.4277,VALID,359,VALID,1.6293,
2016-12-15, 16:03:04,VALID,919.332,VALID,0,VALID,83.9033,VALID,320.39,VALID,23.1136,VALID,305,VALID,0.139844,
2016-12-15, 16:04:04,VALID,919.291,VALID,0,VALID,85.2298,VALID,237.338,VALID,23.0356,VALID,10,VALID,2.35234,
2016-12-15, 16:05:04,VALID,919.342,VALID,0,VALID,87.311,VALID,264.09,VALID,23.0356,VALID,1,VALID,0.248047,
2016-12-15, 16:06:04,VALID,919.3,VALID,0,VALID,92.2814,VALID,264.52,VALID,23.2307,VALID,359,VALID,0.00078125,
2016-12-15, 16:07:04,VALID,919.326,VALID,0,VALID,91.9994,VALID,268.173,VALID,23.5235,VALID,106,VALID,0.00117188,
2016-12-15, 16:08:04,VALID,919.277,VALID,0,VALID,88.546,VALID,246.47,VALID,23.7968,VALID,6,VALID,1.1293,
2016-12-15, 16:09:04,VALID,919.298,VALID,0,VALID,81.2275,VALID,250.338,VALID,23.795,VALID,266,VALID,0.0378906,
2016-12-15, 16:10:04,VALID,919.278,VALID,0,VALID,81.5477,VALID,265.595,VALID,23.8944,VALID,360,VALID,0.238281,
2016-12-15, 16:11:04,VALID,919.359,VALID,0,VALID,77.9647,VALID,259.9,VALID,23.953,VALID,288,VALID,1.21602,
2016-12-15, 16:12:04,VALID,919.329,VALID,0,VALID,82.9123,VALID,299.653,VALID,23.7968,VALID,345,VALID,0,
2016-12-15, 16:13:04,VALID,919.316,VALID,0,VALID,79.0015,VALID,310.935,VALID,23.7578,VALID,251,VALID,1.22305,
2016-12-15, 16:14:04,VALID,919.297,VALID,0,VALID,82.9123,VALID,306.852,VALID,23.6388,VALID,268,VALID,0.2625,
2016-12-15, 16:15:04,VALID,919.24,VALID,0,VALID,80.9149,VALID,353.804,VALID,23.6584,VALID,339,VALID,0.341797,
2016-12-15, 16:16:04,VALID,919.248,VALID,0,VALID,84.376,VALID,356.06,VALID,23.8536,VALID,3,VALID,0.335547,
2016-12-15, 16:17:04,VALID,919.251,VALID,0,VALID,83.6594,VALID,353.481,VALID,24.1482,VALID,44,VALID,0,
2016-12-15, 16:18:04,VALID,919.143,VALID,0,VALID,75.2279,VALID,345.423,VALID,24.283,VALID,300,VALID,3.06289,
2016-12-15, 16:19:04,VALID,919.213,VALID,0,VALID,79.2683,VALID,256.355,VALID,23.9121,VALID,245,VALID,2.71211,
2016-12-15, 16:20:04,VALID,919.278,VALID,0,VALID,81.5096,VALID,233.147,VALID,23.6193,VALID,300,VALID,1.23359,
2016-12-15, 16:21:04,VALID,919.217,VALID,0,VALID,81.9975,VALID,212.089,VALID,23.5412,VALID,38,VALID,0.543359,
2016-12-15, 16:22:04,VALID,919.184,VALID,0,VALID,81.8907,VALID,233.04,VALID,23.5412,VALID,12,VALID,1.0957,
2016-12-15, 16:23:04,VALID,919.254,VALID,0,VALID,83.8804,VALID,290.736,VALID,23.4827,VALID,4,VALID,0.766406,
2016-12-15, 16:24:04,VALID,919.236,VALID,0,VALID,82.2414,VALID,320.067,VALID,23.5412,VALID,3,VALID,0.696094,
2016-12-15, 16:25:04,VALID,919.242,VALID,0,VALID,81.967,VALID,241.528,VALID,23.5803,VALID,16,VALID,0.296484,
2016-12-15, 16:26:04,VALID,919.259,VALID,0,VALID,81.5934,VALID,284.397,VALID,23.4241,VALID,282,VALID,0.0195313,
2016-12-15, 16:27:04,VALID,919.279,VALID,0,VALID,82.5006,VALID,360.035,VALID,23.4241,VALID,146,VALID,0.00117188,
2016-12-15, 16:28:04,VALID,919.305,VALID,0,VALID,82.493,VALID,361.002,VALID,23.559,VALID,21,VALID,0.362891,
2016-12-15, 16:29:04,VALID,919.299,VALID,0,VALID,80.0916,VALID,369.92,VALID,23.6193,VALID,318,VALID,1.17852,
2016-12-15, 16:30:04,VALID,919.292,VALID,0,VALID,80.7167,VALID,390.763,VALID,23.5412,VALID,259,VALID,0.685547,
2016-12-15, 16:31:04,VALID,919.212,VALID,0,VALID,81.7154,VALID,263.338,VALID,23.4419,VALID,10,VALID,2.40703,
2016-12-15, 16:32:04,VALID,919.272,VALID,0,VALID,84.0253,VALID,266.132,VALID,23.4632,VALID,3,VALID,0.00585938,
2016-12-15, 16:33:04,VALID,919.224,VALID,0,VALID,82.2643,VALID,587.381,VALID,23.5785,VALID,21,VALID,0.884766,
2016-12-15, 16:34:04,VALID,919.154,VALID,0,VALID,84.01,VALID,454.906,VALID,23.8145,VALID,35,VALID,2.44805,
2016-12-15, 16:35:04,VALID,919.181,VALID,0,VALID,83.5374,VALID,579,VALID,23.8517,VALID,357,VALID,0.403125,
2016-12-15, 16:36:04,VALID,919.16,VALID,0,VALID,81.3114,VALID,611.555,VALID,23.8908,VALID,360,VALID,2.12188,
2016-12-15, 16:37:04,VALID,919.103,VALID,0,VALID,80.3508,VALID,546.875,VALID,23.9493,VALID,5,VALID,2.57852,
2016-12-15, 16:38:04,VALID,919.145,VALID,0,VALID,81.5553,VALID,727.377,VALID,24.0274,VALID,355,VALID,1.70664,
2016-12-15, 16:39:04,VALID,919.174,VALID,0,VALID,78.1705,VALID,609.406,VALID,24.2031,VALID,257,VALID,0.0148437,
2016-12-15, 16:40:04,VALID,919.167,VALID,0,VALID,79.2149,VALID,323.076,VALID,24.3593,VALID,22,VALID,0,
2016-12-15, 16:41:04,VALID,919.104,VALID,0,VALID,78.7651,VALID,395.706,VALID,24.5173,VALID,40,VALID,1.79805,
2016-12-15, 16:42:04,VALID,919.121,VALID,0,VALID,80.9073,VALID,256.355,VALID,24.5564,VALID,9,VALID,2.2875,
2016-12-15, 16:43:04,VALID,919.122,VALID,0,VALID,78.323,VALID,734.575,VALID,24.4392,VALID,6,VALID,2.22578,
2016-12-15, 16:44:04,VALID,919.131,VALID,0,VALID,79.619,VALID,225.519,VALID,24.1055,VALID,17,VALID,2.63438,
2016-12-15, 16:45:04,VALID,919.106,VALID,0,VALID,79.7409,VALID,155.575,VALID,23.9493,VALID,23,VALID,1.84063,
2016-12-15, 16:46:04,VALID,919.104,VALID,0,VALID,80.7701,VALID,160.195,VALID,23.8731,VALID,255,VALID,0.126172,
2016-12-15, 16:47:04,VALID,919.087,VALID,0,VALID,81.7535,VALID,396.458,VALID,23.8322,VALID,142,VALID,0.0078125,
2016-12-15, 16:48:04,VALID,919.079,VALID,0,VALID,79.2378,VALID,493.8,VALID,23.8322,VALID,358,VALID,1.19453,
2016-12-15, 16:49:04,VALID,919.082,VALID,0,VALID,79.0243,VALID,548.809,VALID,23.6956,VALID,330,VALID,0.283984,
2016-12-15, 16:50:04,VALID,919.1,VALID,0,VALID,81.4181,VALID,454.906,VALID,23.637,VALID,9,VALID,1.06914,
2016-12-15, 16:51:04,VALID,919.086,VALID,0,VALID,78.4526,VALID,301.265,VALID,23.637,VALID,304,VALID,2.20195,
2016-12-15, 16:52:04,VALID,919.075,VALID,0,VALID,81.6544,VALID,519.478,VALID,23.5199,VALID,23,VALID,0.264453,
2016-12-15, 16:53:04,VALID,919.033,VALID,0,VALID,84.0024,VALID,550.958,VALID,23.6761,VALID,2,VALID,0,
2016-12-15, 16:54:04,VALID,919.04,VALID,0,VALID,80.0992,VALID,583.405,VALID,23.7346,VALID,339,VALID,0,
2016-12-15, 16:55:04,VALID,919.005,VALID,0,VALID,80.3051,VALID,418.054,VALID,23.7542,VALID,272,VALID,0,
2016-12-15, 16:56:04,VALID,918.994,VALID,0,VALID,81.601,VALID,162.666,VALID,23.8127,VALID,24,VALID,0.160938,
2016-12-15, 16:57:04,VALID,918.976,VALID,0,VALID,78.8642,VALID,556.223,VALID,23.9298,VALID,288,VALID,0.652344,
2016-12-15, 16:58:04,VALID,918.953,VALID,0,VALID,78.2162,VALID,538.817,VALID,24.0274,VALID,25,VALID,0,
2016-12-15, 16:59:04,VALID,918.973,VALID,0,VALID,79.4512,VALID,408.061,VALID,24.125,VALID,278,VALID,0,
2016-12-15, 17:00:04,VALID,918.96,VALID,0,VALID,77.9952,VALID,633.366,VALID,24.2421,VALID,276,VALID,1.30938,
2016-12-15, 17:01:04,VALID,918.943,VALID,0,VALID,78.8414,VALID,303.629,VALID,24.3593,VALID,27,VALID,1.39063,
2016-12-15, 17:02:04,VALID,918.994,VALID,0,VALID,77.149,VALID,525.495,VALID,24.4411,VALID,206,VALID,0,
2016-12-15, 17:03:04,VALID,919.003,VALID,0,VALID,72.2014,VALID,531.511,VALID,24.2635,VALID,330,VALID,0,
2016-12-15, 17:04:04,VALID,919.004,VALID,0,VALID,75.9368,VALID,522.164,VALID,24.3221,VALID,217,VALID,0,
2016-12-15, 17:05:04,VALID,919.032,VALID,0,VALID,77.5987,VALID,344.779,VALID,24.244,VALID,343,VALID,0.2,
2016-12-15, 17:06:04,VALID,918.975,VALID,0,VALID,78.727,VALID,356.06,VALID,24.1269,VALID,358,VALID,1.4707,
2016-12-15, 17:07:04,VALID,918.989,VALID,0,VALID,77.8427,VALID,507.122,VALID,24.1055,VALID,186,VALID,0,
2016-12-15, 17:08:04,VALID,918.989,VALID,0,VALID,76.2951,VALID,828.586,VALID,24.2421,VALID,343,VALID,0.775781,
2016-12-15, 17:09:04,VALID,918.975,VALID,0,VALID,75.9673,VALID,416.12,VALID,24.3221,VALID,257,VALID,0.445313,
2016-12-15, 17:10:04,VALID,918.984,VALID,0,VALID,77.1718,VALID,362.721,VALID,24.3202,VALID,152,VALID,0.0164062,
2016-12-15, 17:11:04,VALID,919.005,VALID,0,VALID,77.1185,VALID,422.351,VALID,24.4978,VALID,14,VALID,0,
2016-12-15, 17:12:04,VALID,919.028,VALID,0,VALID,76.6535,VALID,389.582,VALID,24.693,VALID,121,VALID,0,
2016-12-15, 17:13:04,VALID,919.012,VALID,0,VALID,74.3131,VALID,368.201,VALID,24.8297,VALID,81,VALID,0.288672,
2016-12-15, 17:14:04,VALID,918.99,VALID,0,VALID,74.5418,VALID,882.737,VALID,24.7497,VALID,273,VALID,0.411719,
2016-12-15, 17:15:04,VALID,919.002,VALID,0,VALID,77.0194,VALID,490.684,VALID,24.5954,VALID,299,VALID,0.201562,
2016-12-15, 17:16:04,VALID,918.992,VALID,0,VALID,76.7373,VALID,440.186,VALID,24.5545,VALID,331,VALID,0.182031,
2016-12-15, 17:17:04,VALID,918.982,VALID,0,VALID,76.4171,VALID,737.906,VALID,24.4374,VALID,284,VALID,0,
2016-12-15, 17:18:04,VALID,918.95,VALID,0,VALID,76.0588,VALID,403.656,VALID,24.5759,VALID,122,VALID,0,
2016-12-15, 17:19:04,VALID,919.035,VALID,0,VALID,76.6687,VALID,397.64,VALID,24.6326,VALID,21,VALID,0,
2016-12-15, 17:20:04,VALID,919.004,VALID,0,VALID,72.8265,VALID,364.333,VALID,24.6326,VALID,279,VALID,0,
2016-12-15, 17:21:04,VALID,918.983,VALID,0,VALID,71.4619,VALID,493.8,VALID,24.5954,VALID,305,VALID,0,
2016-12-15, 17:22:04,VALID,918.996,VALID,0,VALID,76.8517,VALID,705.566,VALID,24.4959,VALID,4,VALID,0.796094,
2016-12-15, 17:23:04,VALID,919.009,VALID,0,VALID,74.5418,VALID,493.262,VALID,24.6521,VALID,346,VALID,0,
2016-12-15, 17:24:04,VALID,918.965,VALID,0,VALID,74.7857,VALID,664.846,VALID,24.8278,VALID,14,VALID,1.34102,
2016-12-15, 17:25:04,VALID,919.006,VALID,0,VALID,73.444,VALID,660.333,VALID,25.0231,VALID,236,VALID,0,
2016-12-15, 17:26:04,VALID,918.966,VALID,0,VALID,71.3247,VALID,683.111,VALID,24.9645,VALID,219,VALID,0,
2016-12-15, 17:27:04,VALID,918.905,VALID,0,VALID,72.9103,VALID,649.911,VALID,24.9645,VALID,32,VALID,2.52383,
2016-12-15, 17:28:04,VALID,919.011,VALID,0,VALID,74.74,VALID,302.769,VALID,24.9255,VALID,26,VALID,2.15977,
2016-12-15, 17:29:04,VALID,918.925,VALID,0,VALID,74.3054,VALID,736.294,VALID,24.9059,VALID,14,VALID,1.90352,
2016-12-15, 17:30:04,VALID,918.963,VALID,0,VALID,73.1848,VALID,748.65,VALID,24.9645,VALID,334,VALID,1.30938,
2016-12-15, 17:31:04,VALID,918.996,VALID,0,VALID,74.1377,VALID,407.202,VALID,24.7869,VALID,1,VALID,1.01445,
2016-12-15, 17:32:04,VALID,919.029,VALID,0,VALID,76.2342,VALID,351.87,VALID,24.6912,VALID,23,VALID,1.43086,
2016-12-15, 17:33:04,VALID,919.017,VALID,0,VALID,75.8073,VALID,676.772,VALID,24.6131,VALID,189,VALID,0.303125,
2016-12-15, 17:34:04,VALID,919.009,VALID,0,VALID,77.2862,VALID,574.166,VALID,24.7497,VALID,33,VALID,0.00195313,
2016-12-15, 17:35:04,VALID,918.999,VALID,0,VALID,75.0754,VALID,510.238,VALID,24.8864,VALID,4,VALID,0.814062,
2016-12-15, 17:36:04,VALID,918.985,VALID,0,VALID,73.7261,VALID,780.238,VALID,24.9236,VALID,20,VALID,0.921484,
2016-12-15, 17:37:04,VALID,918.983,VALID,0,VALID,73.6879,VALID,761.65,VALID,25.0602,VALID,58,VALID,0,
2016-12-15, 17:38:04,VALID,919.011,VALID,0,VALID,72.7274,VALID,706.533,VALID,24.9626,VALID,265,VALID,1.65664,
2016-12-15, 17:39:04,VALID,918.917,VALID,0,VALID,73.8252,VALID,240.668,VALID,24.7283,VALID,338,VALID,1.63281,
2016-12-15, 17:40:04,VALID,918.965,VALID,0,VALID,75.8073,VALID,595.546,VALID,24.6893,VALID,27,VALID,1.24648,
2016-12-15, 17:41:04,VALID,918.951,VALID,0,VALID,74.5646,VALID,733.393,VALID,24.8259,VALID,28,VALID,1.1543,
2016-12-15, 17:42:04,VALID,918.936,VALID,0,VALID,73.6727,VALID,816.123,VALID,25.0017,VALID,347,VALID,0.0308594,
2016-12-15, 17:43:04,VALID,918.905,VALID,0,VALID,73.9548,VALID,319.96,VALID,25.1774,VALID,22,VALID,0,
2016-12-15, 17:44:04,VALID,918.876,VALID,0,VALID,73.3449,VALID,261.834,VALID,25.2945,VALID,32,VALID,0.403125,
2016-12-15, 17:45:04,VALID,918.865,VALID,0,VALID,73.3601,VALID,295.678,VALID,25.2183,VALID,356,VALID,0.441797,
2016-12-15, 17:46:04,VALID,918.858,VALID,0,VALID,73.8861,VALID,887.571,VALID,25.2574,VALID,158,VALID,0.0601562,
2016-12-15, 17:47:04,VALID,918.84,VALID,0,VALID,73.909,VALID,410.21,VALID,25.3765,VALID,13,VALID,0,
2016-12-15, 17:48:04,VALID,918.866,VALID,0,VALID,72.2547,VALID,320.175,VALID,25.2593,VALID,13,VALID,1.67383,
2016-12-15, 17:49:04,VALID,918.819,VALID,0,VALID,75.7768,VALID,356.275,VALID,24.9255,VALID,355,VALID,0.711328,
2016-12-15, 17:50:04,VALID,918.775,VALID,0,VALID,75.4718,VALID,366.052,VALID,24.7107,VALID,18,VALID,1.30078,
2016-12-15, 17:51:04,VALID,918.764,VALID,0,VALID,75.5252,VALID,590.067,VALID,24.6326,VALID,24,VALID,1.64609,
2016-12-15, 17:52:04,VALID,918.778,VALID,0,VALID,75.2202,VALID,280.314,VALID,24.7693,VALID,219,VALID,0.304297,
2016-12-15, 17:53:04,VALID,918.794,VALID,0,VALID,75.1516,VALID,228.85,VALID,24.8474,VALID,268,VALID,0,
2016-12-15, 17:54:04,VALID,918.795,VALID,0,VALID,71.5915,VALID,242.28,VALID,24.8083,VALID,269,VALID,0.408203,
2016-12-15, 17:55:04,VALID,918.761,VALID,0,VALID,72.5749,VALID,276.016,VALID,24.7126,VALID,233,VALID,0.408594,
2016-12-15, 17:56:04,VALID,918.73,VALID,0,VALID,75.1821,VALID,327.373,VALID,24.6326,VALID,18,VALID,2.83672,
2016-12-15, 17:57:04,VALID,918.74,VALID,0,VALID,76.0131,VALID,226.916,VALID,24.5759,VALID,323,VALID,0.231641,
2016-12-15, 17:58:04,VALID,918.747,VALID,0,VALID,76.0283,VALID,261.834,VALID,24.4587,VALID,360,VALID,0.982422,
2016-12-15, 17:59:04,VALID,918.731,VALID,0,VALID,73.8785,VALID,620.473,VALID,24.3788,VALID,317,VALID,1.31367,
2016-12-15, 18:00:04,VALID,918.703,VALID,0,VALID,76.5467,VALID,252.272,VALID,24.2617,VALID,10,VALID,1.20469,
2016-12-15, 18:01:04,VALID,918.666,VALID,0,VALID,74.5265,VALID,229.279,VALID,24.2617,VALID,352,VALID,2.48047,
2016-12-15, 18:02:04,VALID,918.701,VALID,0,VALID,74.9915,VALID,227.883,VALID,24.1817,VALID,356,VALID,0,
2016-12-15, 18:03:04,VALID,918.689,VALID,0,VALID,75.388,VALID,241.205,VALID,24.1427,VALID,265,VALID,0.0195313,
2016-12-15, 18:04:04,VALID,918.68,VALID,0,VALID,76.8059,VALID,250.016,VALID,24.1427,VALID,170,VALID,0,
2016-12-15, 18:05:04,VALID,918.678,VALID,0,VALID,76.9584,VALID,228.957,VALID,24.2013,VALID,303,VALID,1.49102,
2016-12-15, 18:06:04,VALID,918.699,VALID,0,VALID,78.3001,VALID,249.263,VALID,24.125,VALID,204,VALID,0.0859375,
2016-12-15, 18:07:04,VALID,918.727,VALID,0,VALID,78.3001,VALID,263.338,VALID,24.1055,VALID,349,VALID,0.628125,
2016-12-15, 18:08:04,VALID,918.71,VALID,0,VALID,76.6992,VALID,217.461,VALID,24.0665,VALID,350,VALID,0,
2016-12-15, 18:09:04,VALID,918.657,VALID,0,VALID,79.0243,VALID,284.182,VALID,24.086,VALID,59,VALID,0,
2016-12-15, 18:10:04,VALID,918.656,VALID,0,VALID,78.4068,VALID,803.552,VALID,24.2812,VALID,116,VALID,0,
2016-12-15, 18:11:04,VALID,918.622,VALID,0,VALID,76.783,VALID,612.2,VALID,24.4745,VALID,342,VALID,0,
2016-12-15, 18:12:04,VALID,918.569,VALID,0,VALID,76.4476,VALID,380.342,VALID,24.6716,VALID,10,VALID,0.382813,
2016-12-15, 18:13:04,VALID,918.592,VALID,0,VALID,74.4808,VALID,905.299,VALID,24.8259,VALID,302,VALID,0,
2016-12-15, 18:14:04,VALID,918.54,VALID,0,VALID,73.8252,VALID,918.514,VALID,25.0621,VALID,346,VALID,0.525,
2016-12-15, 18:15:04,VALID,918.56,VALID,0,VALID,68.2524,VALID,739.303,VALID,25.1988,VALID,275,VALID,0.0894531,
2016-12-15, 18:16:04,VALID,918.556,VALID,0,VALID,71.2027,VALID,924.209,VALID,25.0036,VALID,334,VALID,0,
2016-12-15, 18:17:04,VALID,918.546,VALID,0,VALID,74.7781,VALID,764.551,VALID,25.1969,VALID,356,VALID,0.420703,
2016-12-15, 18:18:04,VALID,918.505,VALID,0,VALID,72.331,VALID,709.004,VALID,25.4331,VALID,16,VALID,2.07188,
2016-12-15, 18:19:04,VALID,918.521,VALID,0,VALID,71.9727,VALID,828.371,VALID,25.5113,VALID,6,VALID,0.501172,
2016-12-15, 18:20:04,VALID,918.48,VALID,0,VALID,73.1162,VALID,553.322,VALID,25.3726,VALID,15,VALID,1.83555,
2016-12-15, 18:21:04,VALID,918.483,VALID,0,VALID,71.965,VALID,868.877,VALID,25.4722,VALID,296,VALID,0,
2016-12-15, 18:22:04,VALID,918.469,VALID,0,VALID,70.9969,VALID,641.101,VALID,25.5894,VALID,357,VALID,0.119922,
2016-12-15, 18:23:04,VALID,918.449,VALID,0,VALID,71.1189,VALID,559.768,VALID,25.6851,VALID,226,VALID,0,
2016-12-15, 18:24:04,VALID,918.445,VALID,0,VALID,68.8699,VALID,382.491,VALID,25.6265,VALID,277,VALID,0.1,
2016-12-15, 18:25:04,VALID,918.432,VALID,0,VALID,70.0821,VALID,761.221,VALID,25.5308,VALID,357,VALID,0.956641,
2016-12-15, 18:26:04,VALID,918.433,VALID,0,VALID,69.6323,VALID,888.968,VALID,25.5113,VALID,272,VALID,0.447266,
2016-12-15, 18:27:04,VALID,918.428,VALID,0,VALID,71.3094,VALID,861.893,VALID,25.3336,VALID,292,VALID,0,
2016-12-15, 18:28:04,VALID,918.416,VALID,0,VALID,69.2054,VALID,616.39,VALID,25.4703,VALID,218,VALID,0.680859,
2016-12-15, 18:29:04,VALID,918.411,VALID,0,VALID,73.1162,VALID,543.008,VALID,25.5289,VALID,6,VALID,0.99375,
2016-12-15, 18:30:04,VALID,918.412,VALID,0,VALID,69.5408,VALID,343.489,VALID,25.6851,VALID,354,VALID,2.04531,
2016-12-15, 18:31:04,VALID,918.384,VALID,0,VALID,70.4175,VALID,322.753,VALID,25.648,VALID,307,VALID,0,
2016-12-15, 18:32:04,VALID,918.443,VALID,0,VALID,71.3094,VALID,316.844,VALID,25.607,VALID,277,VALID,0,
2016-12-15, 18:33:04,VALID,918.428,VALID,0,VALID,68.0924,VALID,311.579,VALID,25.646,VALID,263,VALID,0,
2016-12-15, 18:34:04,VALID,918.391,VALID,0,VALID,68.7708,VALID,291.273,VALID,25.6655,VALID,262,VALID,0,
2016-12-15, 18:35:04,VALID,918.41,VALID,0,VALID,69.8534,VALID,254.636,VALID,25.7066,VALID,16,VALID,0.0195313,
2016-12-15, 18:36:04,VALID,918.39,VALID,0,VALID,69.6856,VALID,270.322,VALID,25.7612,VALID,315,VALID,0,
2016-12-15, 18:37:04,VALID,918.398,VALID,0,VALID,67.978,VALID,877.794,VALID,25.7046,VALID,261,VALID,0,
2016-12-15, 18:38:04,VALID,918.439,VALID,0,VALID,70.509,VALID,848.785,VALID,25.6265,VALID,6,VALID,0.394531,
2016-12-15, 18:39:04,VALID,918.351,VALID,0,VALID,67.0937,VALID,672.152,VALID,25.5874,VALID,238,VALID,0.264453,
2016-12-15, 18:40:04,VALID,918.415,VALID,0,VALID,66.6896,VALID,434.492,VALID,25.6655,VALID,57,VALID,0.0800781,
2016-12-15, 18:41:04,VALID,918.427,VALID,0,VALID,68.0466,VALID,381.524,VALID,25.7241,VALID,186,VALID,0.09375,
2016-12-15, 18:42:04,VALID,918.435,VALID,0,VALID,68.6717,VALID,815.586,VALID,25.7241,VALID,90,VALID,0,
2016-12-15, 18:43:04,VALID,918.285,VALID,0,VALID,69.1749,VALID,353.052,VALID,25.8218,VALID,25,VALID,3.34297,
2016-12-15, 18:44:04,VALID,918.334,VALID,0,VALID,67.5206,VALID,776.155,VALID,25.8608,VALID,259,VALID,0.363672,
2016-12-15, 18:45:04,VALID,918.368,VALID,0,VALID,68.0085,VALID,766.7,VALID,25.9975,VALID,240,VALID,0.141797,